Location: London
(51.5074°N, 0.1278°W)
Time: 15:10:24
(UTC+01:00)

ISS - Pass Details

Date: 04 April 2018
Orbit: 403 x 406 km, 51.6° (Epoch: 22 April)

Event Time Altitude Azimuth Distance (km) Brightness Sun altitude
Rises 21:17:43 0° 283° (WNW) 2,336 1.5 -15.2°
Reaches altitude 10° 21:19:50 10° 279° (W) 1,474 0.1 -15.4°
Maximum altitude 21:23:05 57° 200° (SSW) 486 -3.6 -15.9°
Enters shadow 21:23:58 40° 144° (SE) 618 -3.4 -16.0°
